Location: Central Falls
(41.8900°N, 71.3929°W)
Time: 14:10:14
(UTC+00:00)

Vanguard 2 Rocket - All Passes

Search period start: 03 December 2023 00:00
Search period end: 13 December 2023 00:00
Orbit: 553 x 3312 km, 32.9° (Epoch: 03 December)

Date Brightness Start Highest point End Pass type
(mag) Time Alt. Az. Time Alt. Az. Time Alt. Az.
03 Dec - 01:07:29 10° W 01:24:01 42° SSW 01:35:00 10° SE visible
03 Dec - 03:30:28 10° WSW 03:36:24 14° SW 03:41:17 10° SSW visible
03 Dec - 17:18:38 10° S 17:31:37 29° SE 17:46:58 10° E daylight
03 Dec - 19:29:32 10° SW 19:47:09 54° SSE 20:05:31 10° E daylight
03 Dec - 21:44:46 10° WSW 22:04:35 64° S 22:21:00 10° ESE visible
04 Dec - 00:02:38 10° W 00:21:14 52° SSW 00:34:06 10° SE visible
04 Dec - 02:23:04 10° W 02:34:54 24° SW 02:43:28 10° S visible
04 Dec - 16:19:23 10° S 16:29:08 19° SE 16:40:42 10° E daylight
04 Dec - 18:27:40 10° SW 18:43:27 46° SSE 19:01:44 10° E daylight
04 Dec - 20:41:22 10° WSW 21:00:25 63° S 21:18:22 10° E daylight
04 Dec - 22:58:11 10° W 23:17:49 59° SSW 23:32:37 10° ESE visible
05 Dec - 01:17:18 10° W 01:32:52 35° SW 01:43:47 10° SSE visible
05 Dec - 15:24:45 10° SE 15:27:09 10° SE 15:29:40 10° ESE daylight
05 Dec - 17:26:34 10° SSW 17:40:15 36° SE 17:57:15 10° E daylight
05 Dec - 19:38:37 10° WSW 19:56:17 59° SSE 20:15:11 10° E daylight
05 Dec - 21:54:13 10° W 22:13:55 64° S 22:30:34 10° ESE visible
06 Dec - 00:12:14 10° W 00:30:14 45° SSW 00:43:12 10° SE visible
06 Dec - 02:34:14 10° W 02:43:26 17° SW 02:50:44 10° SSW visible
06 Dec - 16:26:25 10° S 16:37:36 27° SE 16:51:51 10° E daylight
06 Dec - 18:36:30 10° SW 18:52:24 53° SSE 19:11:27 10° E daylight
06 Dec - 20:50:47 10° WSW 21:09:44 65° S 21:27:57 10° ESE daylight
06 Dec - 23:07:43 10° W 23:26:58 54° SSW 23:41:54 10° SE visible
07 Dec - 01:27:28 10° W 01:41:31 27° SW 01:52:02 10° S visible
07 Dec - 15:27:49 10° SSE 15:35:32 17° SE 15:44:54 10° E daylight
07 Dec - 17:35:05 10° SW 17:49:00 44° SSE 18:07:08 10° E daylight
07 Dec - 19:47:56 10° WSW 20:05:30 63° S 20:24:46 10° E daylight
07 Dec - 22:03:45 10° W 22:23:10 60° SSW 22:39:58 10° ESE visible
08 Dec - 00:22:01 10° W 00:39:02 38° SW 00:51:54 10° SSE visible
08 Dec - 02:48:14 10° WSW 02:51:50 11° SW 02:55:09 10° SW visible
08 Dec - 16:34:25 10° SSW 16:46:11 34° SE 17:02:10 10° E daylight
08 Dec - 18:45:40 10° WSW 19:01:30 58° SSE 19:21:03 10° E daylight
08 Dec - 21:00:18 10° W 21:19:03 64° S 21:37:26 10° ESE daylight
08 Dec - 23:17:22 10° W 23:35:57 47° SSW 23:50:54 10° SE visible
09 Dec - 01:38:22 10° W 01:50:01 20° SW 01:59:25 10° S visible
09 Dec - 15:34:44 10° S 15:43:59 23° SE 15:56:19 10° E daylight
09 Dec - 17:44:01 10° SW 17:57:56 51° SSE 18:16:47 10° E daylight
09 Dec - 19:57:25 10° WSW 20:14:48 65° S 20:34:16 10° ESE daylight
09 Dec - 22:13:20 10° W 22:32:19 55° SSW 22:49:10 10° SE visible
10 Dec - 00:32:09 10° W 00:47:41 30° SW 01:00:05 10° SSE visible
10 Dec - 14:37:05 10° SSE 14:42:19 14° SE 14:48:34 10° ESE daylight
10 Dec - 16:43:01 10° SSW 16:54:56 41° SSE 17:12:01 10° E daylight
10 Dec - 18:55:04 10° WSW 19:10:43 62° S 19:30:33 10° E daylight
10 Dec - 21:09:53 10° W 21:28:18 61° SSW 21:46:45 10° ESE visible
10 Dec - 23:27:10 10° W 23:44:46 40° SW 23:59:30 10° SSE visible
11 Dec - 01:50:58 10° WSW 01:58:24 14° SW 02:04:58 10° SSW visible
11 Dec - 15:42:45 10° SSW 15:52:35 31° SE 16:06:42 10° E daylight
11 Dec - 17:53:16 10° SW 18:07:02 57° SSE 18:26:19 10° E daylight
11 Dec - 20:06:59 10° W 20:24:07 64° S 20:43:40 10° ESE daylight
11 Dec - 22:23:02 10° W 22:41:18 49° SSW 22:58:03 10° SE visible
12 Dec - 00:42:54 10° W 00:56:11 23° SW 01:07:26 10° S visible
12 Dec - 14:43:34 10° S 14:50:49 20° SE 15:00:33 10° E daylight
12 Dec - 16:52:01 10° SW 17:03:53 48° SSE 17:21:39 10° E daylight
12 Dec - 19:04:36 10° WSW 19:20:02 64° S 19:39:58 10° ESE daylight
12 Dec - 21:19:33 10° W 21:37:27 56° SSW 21:55:50 10° SE visible
